Content
SEND FEEDBACK

Daily
Averages
Monthly
Summary
United States of America

EL PASO, TEXAS


Home > North America > United States > Texas
Elevation: 3918 feet     Latitude: 31 48N     Longitude: 106 24W

WEATHER
 
SELECT A DAY
Number of Records: 175,375;   Date Range: 1/1/95 - 11/24/14
 
SHARE

PRINT THIS DATA

[ ← Previous Day ]
WEATHER ALMANAC - NOVEMBER 16, 2013
[ Next Day → ]
[ °C ]   °F
Weather ElementAverageHighLow
Temperature65.3 °F73.9 °F (2:51 pm)57.9 °F (3:51 am)
Dewpoint44.2 °F48 °F (3:51 am)39 °F (3:51 pm)
Humidity48.3 %70 % (3:51 am)28 % (3:51 pm)
Barometer29.67 in29.74 in (8:51 am)29.58 in (2:51 pm)
Wind Speed16.3 mph28.8 mph (3:51 pm)
Wind Gust41.4 mph (3:51 pm)
Weather ElementAverage
Visibility10 mi
Wind DirectionSSW (215.2 °)

Weather ElementTotal
Precipitation---
Cooling Degree Days0.9 (Base 65)
Growing Degree Days15.9 (Base 50)
Averaged from 23 records on November 16, 2013
WEATHER CONDITIONS BREAKOUT
WIND DIRECTION BREAKOUT
WEATHER BY HOUR - NOVEMBER 16, 2013
[ °C ]   °F
Local TimeTemperatureDewpointHumidityBarometerVisibilityWind DirectionWind SpeedGust SpeedPrecipitationEventsConditions
1:51 AM60.1 °F46.0 °F60 %29.64 in10.0 miSouth (180°)16.1 mph0.00 inRainLight Rain
2:51 AM59.0 °F46.9 °F64 %29.64 in10.0 miSouth (180°)12.7 mph0.00 inMostly Cloudy
3:51 AM57.9 °F48.0 °F70 %29.66 in10.0 miSouth (180°)8.1 mphScattered Clouds
4:51 AM57.9 °F46.9 °F67 %29.67 in10.0 miSouth (180°)10.4 mphMostly Cloudy
5:51 AM57.9 °F46.9 °F67 %29.68 in10.0 miSouth (170°)9.2 mph0.00 inScattered Clouds
6:51 AM57.9 °F46.0 °F65 %29.70 in10.0 miSouth (190°)6.9 mphScattered Clouds
7:51 AM59.0 °F46.0 °F62 %29.72 in10.0 miSouth (190°)6.9 mphScattered Clouds
8:51 AM61.0 °F46.9 °F60 %29.74 in10.0 miSouth (180°)9.2 mphMostly Cloudy
9:51 AM64.9 °F46.9 °F52 %29.74 in10.0 miSSW (200°)12.7 mphPartly Cloudy
10:51 AM69.1 °F45.0 °F42 %29.71 in10.0 miSW (230°)20.7 mph27.6 mphPartly Cloudy
11:51 AM71.1 °F46.0 °F41 %29.68 in10.0 miSW (220°)23.0 mph29.9 mphScattered Clouds
12:51 PM72.0 °F45.0 °F38 %29.63 in10.0 miSSW (210°)19.6 mph26.5 mphScattered Clouds
1:51 PM73.0 °F45.0 °F37 %29.60 in10.0 miSSW (210°)17.3 mph28.8 mphPartly Cloudy
2:51 PM73.9 °F39.9 °F29 %29.58 in10.0 miWSW (250°)23.0 mph36.8 mphScattered Clouds
3:51 PM73.9 °F39.0 °F28 %29.60 in10.0 miWSW (250°)28.8 mph41.4 mphScattered Clouds
4:51 PM72.0 °F39.0 °F30 %29.61 in10.0 miWSW (240°)28.8 mph35.7 mphScattered Clouds
5:51 PM70.0 °F39.9 °F33 %29.63 in10.0 miSW (230°)19.6 mph29.9 mphScattered Clouds
6:51 PM68.0 °F41.0 °F37 %29.66 in10.0 miSW (230°)21.9 mph28.8 mphScattered Clouds
7:51 PM66.9 °F42.1 °F40 %29.69 in10.0 miWSW (240°)20.7 mph27.6 mphScattered Clouds
8:51 PM64.9 °F43.0 °F45 %29.71 in10.0 miWSW (240°)16.1 mph24.2 mphPartly Cloudy
9:51 PM64.0 °F44.1 °F48 %29.74 in10.0 miSW (230°)11.5 mphPartly Cloudy
10:51 PM63.0 °F44.1 °F50 %29.73 in10.0 miWSW (250°)16.1 mphClear
11:51 PM64.0 °F42.1 °F45 %29.72 in10.0 miWest (270°)16.1 mph25.3 mphPartly Cloudy
Hourly data recorded from KELP, located miles away from El Paso, Texas







STORIES FROM OUR PARTNERS